Location: Arbon
(43.0005°N, 0.7472°E)
Time: 06:33:17
(UTC+00:00)

Vanguard 2 Rocket - Visible Passes

Search period start: 27 November 2020 00:00
Search period end: 07 December 2020 00:00
Orbit: 554 x 3326 km, 32.9° (Epoch: 26 November)

Date Brightness Start Highest point End Pass type
(mag) Time Alt. Az. Time Alt. Az. Time Alt. Az.
27 Nov 11.1 06:06:41 10° SSW 06:22:21 30° SE 06:36:48 10° E visible
28 Nov 11.1 05:08:03 10° S 05:21:12 23° SE 05:34:18 10° E visible
29 Nov 11.2 04:11:20 10° SSE 04:20:23 15° SE 04:29:46 10° ESE visible
29 Nov 10.9 06:18:16 10° SSW 06:35:24 39° SSE 06:51:24 10° E visible
30 Nov 10.9 05:18:50 10° SSW 05:34:02 31° SE 05:49:33 10° E visible
01 Dec 10.9 04:20:31 10° S 04:33:02 23° SE 04:46:34 10° E visible
01 Dec 10.6 06:30:35 10° SW 06:48:31 47° SSE 07:05:34 10° E visible
02 Dec 11.0 03:24:08 10° SSE 03:32:27 15° SE 03:41:31 10° ESE visible
02 Dec 10.7 05:30:39 10° SSW 05:46:56 39° SSE 06:04:02 10° E visible
03 Dec 10.7 04:31:34 10° SSW 04:45:43 31° SE 05:01:42 10° E visible
04 Dec 10.7 03:33:34 10° S 03:44:57 23° SE 03:58:15 10° E visible
04 Dec 10.4 05:43:08 10° SW 05:59:58 47° SSE 06:18:07 10° E visible
05 Dec 10.8 02:37:40 10° SSE 02:44:40 14° SE 02:52:36 10° ESE visible
05 Dec 10.5 04:43:35 10° SSW 04:58:31 39° SSE 05:16:06 10° E visible
06 Dec 10.5 03:44:51 10° SSW 03:57:33 31° SE 04:13:18 10° E visible
06 Dec 10.2 05:56:04 10° SW 06:13:08 54° SSE 06:32:00 10° E visible
